When you browse on this site, cookies collect data to enhance your experience and personalize the content and advertising you see.
Visit our Privacy Policy to learn more. By continuing to use the site, you agree to this use of cookies and data.
  • Em Portugal
  • Lista de países
  • Para 7 dias
  • Temperatura da água
  • Mapas de satélite
  • Mapa do tempo
  • Widgets de tempo
  • user-avatar
    Iniciar Sessão

    Previsão horária em Buenos Aires

    Hoje, 25 Março, Segunda-feira

    Tempo Temperatura Precipitação Vento Pressão Humidade
    00:00 +15°C° 0 mm 6 m/s 762 mmHg 62%
    01:00 +14°C° 0 mm 5 m/s 763 mmHg 65%
    02:00 +14°C° 0 mm 5 m/s 762 mmHg 69%
    03:00 +14°C° 0 mm 5 m/s 762 mmHg 70%
    04:00 +13°C° 0 mm 5 m/s 763 mmHg 71%
    05:00 +13°C° 0 mm 5 m/s 763 mmHg 73%
    06:00 +13°C° 0 mm 5 m/s 763 mmHg 70%
    07:00 +14°C° 0 mm 5 m/s 763 mmHg 66%
    08:00 +14°C° 0 mm 5 m/s 763 mmHg 62%
    09:00 +15°C° 0 mm 4 m/s 763 mmHg 56%
    10:00 +18°C° 0 mm 4 m/s 764 mmHg 50%
    11:00 +19°C° 0 mm 4 m/s 764 mmHg 44%
    12:00 +20°C° 0 mm 4 m/s 764 mmHg 43%
    13:00 +21°C° 0 mm 4 m/s 764 mmHg 41%
    14:00 +21°C° 0 mm 4 m/s 764 mmHg 40%
    15:00 +21°C° 0 mm 4 m/s 763 mmHg 43%
    16:00 +20°C° 0 mm 4 m/s 763 mmHg 46%
    17:00 +20°C° 0 mm 4 m/s 763 mmHg 49%
    18:00 +19°C° 0 mm 5 m/s 764 mmHg 52%
    19:00 +17°C° 0 mm 5 m/s 764 mmHg 55%
    20:00 +17°C° 0 mm 5 m/s 765 mmHg 58%
    21:00 +16°C° 0 mm 5 m/s 765 mmHg 60%
    22:00 +16°C° 0 mm 5 m/s 765 mmHg 62%
    23:00 +15°C° 0 mm 5 m/s 766 mmHg 64%

    Amanhã, 26 Março, Terça-feira

    Tempo Temperatura Precipitação Vento Pressão Humidade
    00:00 +15°C° 0 mm 5 m/s 766 mmHg 66%
    01:00 +14°C° 0 mm 4 m/s 766 mmHg 67%
    02:00 +14°C° 0 mm 4 m/s 766 mmHg 69%
    03:00 +14°C° 0 mm 4 m/s 766 mmHg 70%
    04:00 +13°C° 0 mm 4 m/s 766 mmHg 72%
    05:00 +13°C° 0 mm 4 m/s 766 mmHg 74%
    06:00 +14°C° 0 mm 4 m/s 766 mmHg 72%
    07:00 +14°C° 0 mm 4 m/s 767 mmHg 70%
    08:00 +15°C° 0 mm 5 m/s 767 mmHg 67%
    09:00 +18°C° 0 mm 4 m/s 767 mmHg 61%
    10:00 +20°C° 0 mm 4 m/s 767 mmHg 55%
    11:00 +21°C° 0 mm 4 m/s 767 mmHg 49%
    12:00 +21°C° 0.1 mm 4 m/s 767 mmHg 50%
    13:00 +21°C° 0.1 mm 5 m/s 767 mmHg 51%
    14:00 +21°C° 0.1 mm 5 m/s 766 mmHg 53%
    15:00 +21°C° 0 mm 5 m/s 767 mmHg 54%
    16:00 +21°C° 0 mm 5 m/s 767 mmHg 56%
    17:00 +21°C° 0 mm 5 m/s 767 mmHg 57%
    18:00 +20°C° 0 mm 5 m/s 767 mmHg 61%
    19:00 +20°C° 0 mm 5 m/s 768 mmHg 64%
    20:00 +19°C° 0 mm 5 m/s 768 mmHg 67%
    21:00 +19°C° 0.1 mm 5 m/s 768 mmHg 68%
    22:00 +19°C° 0.1 mm 5 m/s 769 mmHg 69%
    23:00 +19°C° 0.1 mm 5 m/s 769 mmHg 69%

    Depois de amanhã, 27 Março, Quarta-feira

    Tempo Temperatura Precipitação Vento Pressão Humidade
    00:00 +17°C° 0.1 mm 5 m/s 769 mmHg 69%
    01:00 +18°C° 0.1 mm 4 m/s 769 mmHg 69%
    02:00 +18°C° 0.1 mm 4 m/s 769 mmHg 68%
    03:00 +18°C° 0.1 mm 4 m/s 769 mmHg 68%
    04:00 +18°C° 0.1 mm 4 m/s 769 mmHg 67%
    05:00 +18°C° 0.1 mm 4 m/s 769 mmHg 67%
    06:00 +19°C° 0 mm 4 m/s 769 mmHg 65%
    07:00 +19°C° 0 mm 4 m/s 770 mmHg 64%
    08:00 +19°C° 0 mm 4 m/s 770 mmHg 62%
    09:00 +20°C° 0 mm 4 m/s 770 mmHg 58%
    10:00 +21°C° 0 mm 4 m/s 770 mmHg 53%
    11:00 +22°C° 0 mm 4 m/s 770 mmHg 48%
    12:00 +23°C° 0 mm 4 m/s 770 mmHg 45%
    13:00 +23°C° 0 mm 4 m/s 769 mmHg 43%
    14:00 +25°C° 0 mm 4 m/s 768 mmHg 41%
    15:00 +23°C° 0 mm 4 m/s 768 mmHg 43%
    16:00 +23°C° 0 mm 4 m/s 768 mmHg 44%
    17:00 +23°C° 0 mm 4 m/s 768 mmHg 46%
    18:00 +22°C° 0 mm 4 m/s 768 mmHg 49%
    19:00 +22°C° 0 mm 4 m/s 768 mmHg 52%
    20:00 +21°C° 0 mm 4 m/s 769 mmHg 55%
    21:00 +21°C° 0 mm 4 m/s 769 mmHg 57%
    22:00 +21°C° 0 mm 5 m/s 769 mmHg 60%
    23:00 +20°C° 0 mm 6 m/s 769 mmHg 63%

    28 Março, Quinta-feira

    Tempo Temperatura Precipitação Vento Pressão Humidade
    00:00 +20°C° 0 mm 6 m/s 769 mmHg 64%
    01:00 +20°C° 0 mm 6 m/s 769 mmHg 65%
    02:00 +19°C° 0 mm 6 m/s 769 mmHg 66%
    03:00 +19°C° 0 mm 6 m/s 769 mmHg 69%
    04:00 +19°C° 0 mm 5 m/s 769 mmHg 72%
    05:00 +17°C° 0 mm 5 m/s 769 mmHg 75%
    06:00 +19°C° 0 mm 5 m/s 769 mmHg 74%
    07:00 +19°C° 0 mm 5 m/s 769 mmHg 74%
    08:00 +20°C° 0 mm 5 m/s 769 mmHg 73%
    09:00 +21°C° 0 mm 5 m/s 769 mmHg 66%
    10:00 +22°C° 0 mm 4 m/s 769 mmHg 59%
    11:00 +25°C° 0 mm 4 m/s 768 mmHg 52%
    12:00 +26°C° 0 mm 4 m/s 768 mmHg 49%
    13:00 +27°C° 0 mm 3 m/s 767 mmHg 46%
    14:00 +27°C° 0 mm 3 m/s 766 mmHg 43%
    15:00 +27°C° 0 mm 3 m/s 766 mmHg 45%
    16:00 +27°C° 0 mm 4 m/s 766 mmHg 48%
    17:00 +27°C° 0 mm 4 m/s 765 mmHg 50%
    18:00 +26°C° 0 mm 4 m/s 765 mmHg 55%
    19:00 +26°C° 0 mm 5 m/s 765 mmHg 59%
    20:00 +24°C° 0 mm 6 m/s 765 mmHg 63%
    21:00 +24°C° 0 mm 6 m/s 765 mmHg 66%
    22:00 +23°C° 0 mm 6 m/s 765 mmHg 68%
    23:00 +23°C° 0 mm 7 m/s 765 mmHg 71%

    29 Março, Sexta-feira

    Tempo Temperatura Precipitação Vento Pressão Humidade
    00:00 +23°C° 0 mm 6 m/s 765 mmHg 72%
    01:00 +22°C° 0 mm 6 m/s 765 mmHg 72%
    02:00 +22°C° 0 mm 6 m/s 764 mmHg 73%
    03:00 +22°C° 0.1 mm 6 m/s 764 mmHg 75%
    04:00 +22°C° 0.1 mm 6 m/s 764 mmHg 76%
    05:00 +21°C° 0.1 mm 5 m/s 763 mmHg 78%
    06:00 +22°C° 0.1 mm 5 m/s 764 mmHg 77%
    07:00 +22°C° 0.1 mm 5 m/s 764 mmHg 75%
    08:00 +22°C° 0.1 mm 5 m/s 764 mmHg 74%
    09:00 +23°C° 0.1 mm 5 m/s 763 mmHg 69%
    10:00 +26°C° 0.1 mm 4 m/s 763 mmHg 64%
    11:00 +27°C° 0.1 mm 4 m/s 762 mmHg 59%
    12:00 +27°C° 0 mm 4 m/s 762 mmHg 57%
    13:00 +28°C° 0 mm 3 m/s 761 mmHg 55%
    14:00 +29°C° 0 mm 3 m/s 760 mmHg 54%
    15:00 +29°C° 0 mm 3 m/s 760 mmHg 54%
    16:00 +29°C° 0 mm 3 m/s 759 mmHg 55%
    17:00 +29°C° 0 mm 3 m/s 759 mmHg 56%
    18:00 +28°C° 0 mm 3 m/s 759 mmHg 61%
    19:00 +27°C° 0 mm 3 m/s 759 mmHg 65%
    20:00 +26°C° 0 mm 3 m/s 759 mmHg 70%
    21:00 +26°C° 0 mm 3 m/s 759 mmHg 73%
    22:00 +26°C° 0 mm 3 m/s 759 mmHg 75%
    23:00 +25°C° 0 mm 3 m/s 759 mmHg 78%

    30 Março, Sábado

    Tempo Temperatura Precipitação Vento Pressão Humidade
    00:00 +25°C° 0.8 mm 3 m/s 759 mmHg 80%
    01:00 +24°C° 0.8 mm 3 m/s 758 mmHg 81%
    02:00 +24°C° 0.8 mm 3 m/s 758 mmHg 83%
    03:00 +24°C° 0.2 mm 3 m/s 758 mmHg 84%
    04:00 +24°C° 0.2 mm 2 m/s 758 mmHg 85%
    05:00 +23°C° 0.2 mm 2 m/s 758 mmHg 86%
    06:00 +24°C° 1.1 mm 2 m/s 758 mmHg 84%
    07:00 +24°C° 1.1 mm 2 m/s 759 mmHg 83%
    08:00 +25°C° 1.1 mm 3 m/s 759 mmHg 81%
    09:00 +26°C° 0 mm 2 m/s 759 mmHg 72%
    10:00 +28°C° 0 mm 2 m/s 759 mmHg 63%
    11:00 +30°C° 0 mm 2 m/s 759 mmHg 55%
    12:00 +32°C° 0 mm 1 m/s 758 mmHg 48%
    13:00 +33°C° 0 mm 1 m/s 758 mmHg 42%
    14:00 +34°C° 0 mm 1 m/s 757 mmHg 35%
    15:00 +33°C° 0 mm 1 m/s 757 mmHg 38%
    16:00 +33°C° 0 mm 1 m/s 757 mmHg 40%
    17:00 +32°C° 0 mm 2 m/s 757 mmHg 42%
    18:00 +31°C° 0.2 mm 2 m/s 757 mmHg 47%
    19:00 +29°C° 0.2 mm 3 m/s 758 mmHg 52%
    20:00 +28°C° 0.2 mm 4 m/s 758 mmHg 57%
    21:00 +26°C° 0 mm 4 m/s 759 mmHg 54%
    22:00 +25°C° 0 mm 5 m/s 759 mmHg 52%
    23:00 +23°C° 0 mm 5 m/s 759 mmHg 50%
    Mostrar mais